<?xml version='1.0' encoding='UTF-8'?>
<gpx xmlns="http://www.topografix.com/GPX/1/1" creator="www.balnam.be" version="1.1" xmlns:xsi="http://www.w3.org/2001/XMLSchema-instance" xsi:schemaLocation="http://www.topografix.com/GPX/1/1 http://www.topografix.com/GPX/1/1/gpx.xsd">
<trk>
<name>lhabe1</name>
<cmt>s</cmt>
<desc>Bertrée Chemin n°1 </desc>
<link href="https://chemins.be/bertree/chemin/1"/><trkseg>
<trkpt lat="50.703404" lon="5.083444"><time>2026-05-02T17:08:31Z</time></trkpt>
<trkpt lat="50.704360" lon="5.082753"><time>2026-05-02T17:18:31Z</time></trkpt>
<trkpt lat="50.705483" lon="5.082888"><time>2026-05-02T17:28:31Z</time></trkpt>
</trkseg>
</trk>
<trk>
<name>lhabe10</name>
<cmt>v</cmt>
<desc>Bertrée Chemin n°10 </desc>
<link href="https://chemins.be/bertree/chemin/10"/><trkseg>
<trkpt lat="50.704791" lon="5.090144"><time>2026-05-02T17:08:31Z</time></trkpt>
<trkpt lat="50.703998" lon="5.091675"><time>2026-05-02T17:18:31Z</time></trkpt>
<trkpt lat="50.703550" lon="5.093413"><time>2026-05-02T17:28:31Z</time></trkpt>
<trkpt lat="50.703409" lon="5.095838"><time>2026-05-02T17:38:31Z</time></trkpt>
<trkpt lat="50.702635" lon="5.098012"><time>2026-05-02T17:48:31Z</time></trkpt>
</trkseg>
</trk>
<trk>
<name>lhabe12</name>
<cmt>q</cmt>
<desc>Bertrée Sentier n°12 </desc>
<link href="https://chemins.be/bertree/sentier/12"/><trkseg>
<trkpt lat="50.696140" lon="5.098311"><time>2026-05-02T17:08:31Z</time></trkpt>
<trkpt lat="50.696271" lon="5.098894"><time>2026-05-02T17:18:31Z</time></trkpt>
<trkpt lat="50.695961" lon="5.100002"><time>2026-05-02T17:28:31Z</time></trkpt>
<trkpt lat="50.696222" lon="5.101658"><time>2026-05-02T17:38:31Z</time></trkpt>
</trkseg>
</trk>
<trk>
<name>lhabe13</name>
<cmt>q</cmt>
<desc>Bertrée Sentier n°13 </desc>
<link href="https://chemins.be/bertree/sentier/13"/><trkseg>
<trkpt lat="50.694714" lon="5.086286"><time>2026-05-02T17:08:31Z</time></trkpt>
<trkpt lat="50.694500" lon="5.087992"><time>2026-05-02T17:18:31Z</time></trkpt>
<trkpt lat="50.694742" lon="5.088963"><time>2026-05-02T17:28:31Z</time></trkpt>
</trkseg></trk>
<trk>
<name>lhabe13</name>
<cmt>r</cmt>
<desc>Bertrée Sentier n°13 </desc>
<link href="https://chemins.be/bertree/sentier/13"/><trkseg>
<trkpt lat="50.694742" lon="5.088963"><time>2026-05-02T17:28:31Z</time></trkpt>
<trkpt lat="50.694596" lon="5.089108"><time>2026-05-02T17:38:31Z</time></trkpt>
<trkpt lat="50.694714" lon="5.089580"><time>2026-05-02T17:48:31Z</time></trkpt>
</trkseg></trk>
<trk>
<name>lhabe13</name>
<cmt>q</cmt>
<desc>Bertrée Sentier n°13 </desc>
<link href="https://chemins.be/bertree/sentier/13"/><trkseg>
<trkpt lat="50.694714" lon="5.089580"><time>2026-05-02T17:48:31Z</time></trkpt>
<trkpt lat="50.694562" lon="5.089626"><time>2026-05-02T17:58:31Z</time></trkpt>
<trkpt lat="50.693868" lon="5.092115"><time>2026-05-02T18:08:31Z</time></trkpt>
</trkseg>
</trk>
<trk>
<name>lhabe14</name>
<cmt>q</cmt>
<desc>Bertrée Sentier n°14 </desc>
<link href="https://chemins.be/bertree/sentier/14"/><trkseg>
<trkpt lat="50.692006" lon="5.090999"><time>2026-05-02T17:08:31Z</time></trkpt>
<trkpt lat="50.689960" lon="5.090505"><time>2026-05-02T17:18:31Z</time></trkpt>
</trkseg>
</trk>
<trk>
<name>lhabe15</name>
<cmt>q</cmt>
<desc>Bertrée Sentier n°15 </desc>
<link href="https://chemins.be/bertree/sentier/15"/><trkseg>
<trkpt lat="50.695132" lon="5.088083"><time>2026-05-02T17:08:31Z</time></trkpt>
<trkpt lat="50.693797" lon="5.087960"><time>2026-05-02T17:18:31Z</time></trkpt>
<trkpt lat="50.691034" lon="5.089709"><time>2026-05-02T17:28:31Z</time></trkpt>
</trkseg>
</trk>
<trk>
<name>lhabe16</name>
<cmt>q</cmt>
<desc>Bertrée Sentier n°16 </desc>
<link href="https://chemins.be/bertree/sentier/16"/><trkseg>
<trkpt lat="50.691999" lon="5.090999"><time>2026-05-02T17:08:31Z</time></trkpt>
<trkpt lat="50.691646" lon="5.091353"><time>2026-05-02T17:18:31Z</time></trkpt>
<trkpt lat="50.692727" lon="5.093907"><time>2026-05-02T17:28:31Z</time></trkpt>
</trkseg>
</trk>
<trk>
<name>lhabe18</name>
<cmt>v</cmt>
<desc>Bertrée Chemin n°18 </desc>
<link href="https://chemins.be/bertree/chemin/18"/><trkseg>
<trkpt lat="50.704765" lon="5.081878"><time>2026-05-02T17:08:31Z</time></trkpt>
<trkpt lat="50.706612" lon="5.086398"><time>2026-05-02T17:18:31Z</time></trkpt>
</trkseg>
</trk>
<trk>
<name>lhabe19</name>
<cmt>q</cmt>
<desc>Bertrée Sentier n°19 </desc>
<link href="https://chemins.be/bertree/sentier/19"/><trkseg>
<trkpt lat="50.690460" lon="5.097310"><time>2026-05-02T17:08:31Z</time></trkpt>
<trkpt lat="50.691173" lon="5.094934"><time>2026-05-02T17:18:31Z</time></trkpt>
</trkseg>
</trk>
<trk>
<name>lhabe6</name>
<cmt>v</cmt>
<desc>Bertrée Chemin n°6 Rue Bois aux Pirettes</desc>
<link href="https://chemins.be/bertree/chemin/6"/><trkseg>
<trkpt lat="50.694308" lon="5.095140"><time>2026-05-02T17:08:31Z</time></trkpt>
<trkpt lat="50.694917" lon="5.096582"><time>2026-05-02T17:18:31Z</time></trkpt>
<trkpt lat="50.695033" lon="5.096818"><time>2026-05-02T17:28:31Z</time></trkpt>
<trkpt lat="50.696037" lon="5.098333"><time>2026-05-02T17:38:31Z</time></trkpt>
<trkpt lat="50.697657" lon="5.097887"><time>2026-05-02T17:48:31Z</time></trkpt>
</trkseg>
</trk>
<trk>
<name>lhabe9</name>
<cmt>v</cmt>
<desc>Bertrée Chemin n°9 </desc>
<link href="https://chemins.be/bertree/chemin/9"/><trkseg>
<trkpt lat="50.682978" lon="5.095631"><time>2026-05-02T17:08:31Z</time></trkpt>
<trkpt lat="50.684767" lon="5.091768"><time>2026-05-02T17:18:31Z</time></trkpt>
<trkpt lat="50.685115" lon="5.088962"><time>2026-05-02T17:28:31Z</time></trkpt>
<trkpt lat="50.685371" lon="5.086249"><time>2026-05-02T17:38:31Z</time></trkpt>
</trkseg>
</trk>
<trk>
<name>lhabei1</name>
<cmt>v</cmt>
<desc>Bertrée Sentier n°i1 </desc>
<link href="https://chemins.be/bertree/sentier/i1"/><trkseg>
<trkpt lat="50.696029" lon="5.098407"><time>2026-05-02T17:08:31Z</time></trkpt>
<trkpt lat="50.696056" lon="5.099446"><time>2026-05-02T17:18:31Z</time></trkpt>
<trkpt lat="50.695366" lon="5.101849"><time>2026-05-02T17:28:31Z</time></trkpt>
</trkseg>
</trk>
<trk>
<name>lhabei2</name>
<cmt>v</cmt>
<desc>Bertrée Sentier n°i2 </desc>
<link href="https://chemins.be/bertree/sentier/i2"/><trkseg>
<trkpt lat="50.695135" lon="5.086539"><time>2026-05-02T17:08:31Z</time></trkpt>
<trkpt lat="50.695513" lon="5.086521"><time>2026-05-02T17:18:31Z</time></trkpt>
<trkpt lat="50.695932" lon="5.086453"><time>2026-05-02T17:28:31Z</time></trkpt>
<trkpt lat="50.695975" lon="5.086478"><time>2026-05-02T17:38:31Z</time></trkpt>
</trkseg>
</trk>
<trk>
<name>lhabeL127</name>
<cmt>v</cmt>
<desc>Bertrée Chemin n°L127 L127 / Ravel L127</desc>
<link href="https://chemins.be/bertree/chemin/L127"/><trkseg>
<trkpt lat="50.685393" lon="5.086241"><time>2026-05-02T17:08:31Z</time></trkpt>
<trkpt lat="50.686866" lon="5.086361"><time>2026-05-02T17:18:31Z</time></trkpt>
<trkpt lat="50.690151" lon="5.087362"><time>2026-05-02T17:28:31Z</time></trkpt>
<trkpt lat="50.692278" lon="5.087301"><time>2026-05-02T17:38:31Z</time></trkpt>
<trkpt lat="50.695127" lon="5.086661"><time>2026-05-02T17:48:31Z</time></trkpt>
<trkpt lat="50.696303" lon="5.086400"><time>2026-05-02T17:58:31Z</time></trkpt>
<trkpt lat="50.701039" lon="5.085254"><time>2026-05-02T18:08:31Z</time></trkpt>
</trkseg>
</trk>
</gpx>